Location: Beneden-Haastrecht
(52.0012°N, 4.7557°E)
Time: 03:32:20
(UTC+00:00)

Cosmos 1328 - Pass Details

Date: 24 October 2020
Orbit: 533 x 550 km, 82.5° (Epoch: 27 November)

Event Time Altitude Azimuth Distance (km) Brightness Sun altitude
Rises 17:14:04 0° 349° (NNW) 2,697 7.4 -7.8°
Reaches altitude 10° 17:16:13 10° 349° (NNW) 1,800 6.5 -8.1°
Maximum altitude 17:20:11 86° 263° (W) 543 3.8 -8.7°
Drops below altitude 10° 17:24:07 10° 172° (S) 1,787 6.4 -9.3°
Sets 17:26:15 0° 172° (S) 2,674 7.3 -9.7°
